Weather Roundup
Issued by NWS

Home | Current Version | Previous Version | Text Only | Print | Product List | Glossary On
Versions: 1 2 3 4 5 6 7 8 9 10 11 12 13 14 15 16 17 18 19 20 21 22 23 24 25 26 27 28 29 30 31 32 33 34 35 36 37 38 39 40 41 42 43 44 45 46 47 48 49 50
061
NZUS93 KARX 240459
HRRWXR

CURRENT HOURLY OBSERVATIONS ACROSS
MUCH OF THE UPPER MISSISSIPPI VALLEY
NATIONAL WEATHER SERVICE LA CROSSE WI
1100 PM CST MON JAN 23 2017


...SOUTHEAST MINNESOTA...


CITY           SKY/WX    TMP DP  RH WIND       PRES   REMARKS
ROCHESTER      CLOUDY    31  27  85 W5        29.84R WCI  26
ROCHESTER/MAYO CLOUDY    32  30  92 W5        29.85R WCI  27
WINONA         CLOUDY    34  32  93 CALM      29.86S
AUSTIN         CLOUDY    30  27  86 CALM      29.84S
ALBERT LEA     CLOUDY    32  28  86 CALM      29.85R
DODGE CENTER   CLOUDY    30  28  93 MISG      29.84R
PRESTON        CLOUDY    31  28  88 CALM      29.84S
OWATONNA       CLOUDY    32  28  86 W3        29.85R
FARIBAULT      NOT AVBL
$$

...ELSEWHERE IN MINNESOTA...


CITY           SKY/WX    TMP DP  RH WIND       PRES   REMARKS
MINNEAPOLIS    CLOUDY    33  27  78 NW6       29.85S WCI  28
INTNL FALLS    CLOUDY    29  23  78 W3        29.80S
DULUTH         FLURRIES  33  31  92 NW6       29.80R WCI  28
RED WING       CLOUDY    34  28  80 CALM      29.85R
REDWOOD FALLS  CLOUDY    32  26  78 CALM      29.85R
MANKATO        CLOUDY    31  30  96 CALM      29.86S
WORTHINGTON    CLOUDY    30  28  92 S7        29.84R WCI  23
FAIRMONT       CLOUDY    31  29  92 CALM      29.86S
$$

...SOUTHWEST WISCONSIN...


CITY           SKY/WX    TMP DP  RH WIND       PRES   REMARKS
LA CROSSE      CLOUDY    36  32  85 CALM      29.85S
PRAIRIE DU CHI CLOUDY    34  31  90 CALM      29.85S
BOSCOBEL       CLOUDY    35  32  88 CALM      29.86R
LONE ROCK      NOT AVBL
PLATTEVILLE    CLOUDY    35  33  92 NE3       29.83F
FORT MC COY    CLOUDY    32  32 100 CALM      29.85R FOG
CAMP DOUGLAS   CLOUDY    32  32 100 NW6       29.83R WCI  26
MAUSTON-NEW LI CLOUDY    34  33  95 CALM      29.82S FOG
VIROQUA        CLOUDY    33  33 100 CALM      29.82S
WIS DELLS      CLOUDY    33  32  94 NW3       29.82S
$$

...ELSEWHERE IN WISCONSIN...


CITY           SKY/WX    TMP DP  RH WIND       PRES   REMARKS
MILWAUKEE      CLOUDY    39  34  82 NW3       29.81S
MADISON        CLOUDY    36  32  85 W3        29.83S
GREEN BAY      CLOUDY    36  35  96 CALM      29.80S
EAU CLAIRE     CLOUDY    33  32  96 SW3       29.83R FOG
BLACK RVR FLS  CLOUDY    33  33 100 CALM      29.84R FOG
MEDFORD        CLOUDY    32  32  99 NW7       29.79S WCI  26
WAUSAU         FOG       34  34 100 W3        29.78S VSB 1/2
WIS RAPIDS     CLOUDY    34  34 100 W5        29.82R WCI  30
MARSHFIELD     CLOUDY    33  31  92 W8        29.80R FOG     WCI  26
RICE LAKE      CLOUDY    33  32  96 CALM      29.84R FOG
$$

...NORTHEAST IOWA...


CITY           SKY/WX    TMP DP  RH WIND       PRES   REMARKS
WATERLOO       CLOUDY    33  27  78 CALM      29.87R
DUBUQUE        CLOUDY    32  31  96 SW3       29.85R
DECORAH        CLOUDY    32  30  93 CALM      29.83S
MASON CITY     CLOUDY    31  27  85 NW3       29.87R
CHARLES CITY   CLOUDY    32  32 100 CALM      29.85S
OELWEIN        CLOUDY    34  30  86 CALM      29.86R
$$

...ELSEWHERE IN IOWA...


CITY           SKY/WX    TMP DP  RH WIND       PRES   REMARKS
DES MOINES     CLOUDY    33  28  81 CALM      29.88S
IOWA CITY      CLOUDY    33  30  88 CALM      29.89R
FORT DODGE     CLOUDY    30  28  93 CALM      29.87S
MARSHALLTOWN   CLOUDY    32  31  96 CALM      29.86R
CEDAR RAPIDS   CLOUDY    32  30  92 CALM      29.86R
$$

...NORTHERN ILLINOIS...


CITY           SKY/WX    TMP DP  RH WIND       PRES   REMARKS
CHICAGO-OHARE  CLOUDY    38  35  89 N6        29.81R WCI  33
CHICAGO-MIDWAY CLOUDY    40  34  79 N7        29.81R
MOLINE         CLOUDY    35  31  85 W6        29.86S WCI  30
ROCKFORD       CLOUDY    37  33  85 NW5       29.84S WCI  33
PEORIA         CLOUDY    38  35  89 NW3       29.86R
$$

NOTE: "FAIR" INDICATES FEW OR NO CLOUDS BELOW 12,000 FEET WITH NO
SIGNIFICANT WEATHER AND/OR OBSTRUCTIONS TO VISIBILITY. WIND
SPEEDS ARE IN MILES-PER-HOUR.




USA.gov is the U.S. government's official web portal to all federal, state and local government web resources and services.